Regional Weather Roundup
Issued by NWS Jackson, KY

Home | Current Version | Previous Version | Text Only | Print | Product List | Glossary On
Versions: 1 2 3 4 5 6 7 8 9 10 11 12 13 14 15 16 17 18 19 20 21 22 23 24 25 26 27 28 29 30 31 32 33 34 35 36 37 38 39 40 41 42 43 44 45 46 47 48 49 50
000
ASUS43 KJKL 240710
RWRJKL

EAST KENTUCKY HOURLY WEATHER ROUNDUP
NATIONAL WEATHER SERVICE JACKSON KY
300 AM EDT SUN SEP 24 2017

NOTE: "FAIR" INDICATES FEW OR NO CLOUDS BELOW 12,000 FEET WITH
NO SIGNIFICANT WEATHER AND/OR OBSTRUCTIONS TO VISIBILITY.

* THESE REPORTS ARE NOT UNDER NWS QUALITY CONTROL AND MAY NOT
  REPORT WEATHER SUCH AS PRECIPITATION AND FOG.

KYZ079-080-083-085-087-088-110-112-115-119-120-240800
...EASTERN KENTUCKY...

CITY           SKY/WX    TMP DP  RH WIND       PRES   REMARKS
JACKSON        CLEAR     69  62  78 CALM      30.10R
LONDON         CLEAR     64  61  90 CALM      30.08R
SOMERSET*      CLEAR     63  63 100 CALM      30.07S
MONTICELLO*    CLEAR     63  62  97 CALM      30.08R
WILLIAMSBURG*  SUNNY     64  64 100 SE3       30.07S
MIDDLESBORO*   CLEAR     64  64 100 CALM      30.09S
HARLAN APT*    CLOUDY    63  61  94 CALM      30.12S VSB 1
PIKE CO APT*     N/A     67  64  90 SE3       30.11S
BIG SANDY APT* SUNNY     64  64 100 CALM      30.11S
MOREHEAD APT*  SUNNY     72  57  60 VRB5      30.10S
$$

KYZ035-036-041-042-044-050-067-078-099-240800
...CENTRAL KENTUCKY...

CITY           SKY/WX    TMP DP  RH WIND       PRES   REMARKS
MT STERLING*   CLEAR     64  61  88 CALM      30.09S
FLEMING/MASON* CLEAR     66  62  87 NE3       30.10S
DANVILLE*      CLEAR     61  61 100 CALM      30.08S
LEXINGTON      CLEAR     69  61  75 E8        30.08R
FRANKFORT      CLEAR     64  60  87 CALM      30.06S
LOUISVILLE     CLEAR     72  65  78 CALM      30.05S
LEBANON*         N/A     66  63  88 CALM      30.06S
GLASGOW*       CLEAR     64  64  99 CALM      30.03F
BOWLING GREEN  CLEAR     67  67 100 CALM      30.03S FOG
$$

KYZ091>093-OHZ055-061-077-WVZ005-015-034-035-042-240800
...SOUTHERN OHIO/WEST VIRGINIA...

CITY           SKY/WX    TMP DP  RH WIND       PRES   REMARKS
COVINGTON      CLEAR     72  62  71 CALM      30.08F
COLUMBUS       CLEAR     69  60  73 N3        30.11R
DAYTON         CLEAR     64  58  80 E6        30.12S
WILMINGTON     CLEAR     61  59  93 NE5       30.11R
HUNTINGTON     CLEAR     63  60  90 CALM      30.08S
CHARLESTON     CLEAR     59  57  93 CALM      30.11R
PINEVILLE*     CLEAR     57  56  95 MISG      30.20S
BECKLEY        CLEAR     56  48  74 CALM      30.18R
BLUEFIELD      CLEAR     64  50  60 E5        30.20S
LOGAN CO APT*    N/A     68  55  64 CALM      30.13S
$$

VAZ002-007-008-TNZ017-027-036-066-071-240800
...SOUTHWEST VIRGINIA/EAST TENNESSEE...

CITY           SKY/WX    TMP DP  RH WIND       PRES   REMARKS
WISE*          CLEAR     63  55  77 CALM      30.18S
JONESVILLE*      N/A     61  61 100 CALM      30.13S
ABINGDON*      CLEAR     64  57  79 E5        30.15S
BRISTOL        CLEAR     62  60  93 CALM      30.11S
MORRISTOWN*    MOSUNNY   72  63  73 E3        30.07S
SEVIERVILLE*   SUNNY     66  63  88 CALM      30.06S
KNOXVILLE      CLOUDY    71  65  81 CALM      30.05R
LAFOLLETTE*    PTSUNNY   66  66 100 CALM      30.11R
OAK RIDGE      PTCLDY    69  66  90 CALM      30.07R
CROSSVILLE     CLEAR     63  62  97 CALM      30.10S FOG
NASHVILLE      CLEAR     71  68  90 CALM      30.02S
$$

...KEY TO REMARKS...
VSB - VISIBILITY IN MILES
WCI - WIND CHILL INDEX
HX  - HEAT INDEX

$$



USA.gov is the U.S. government's official web portal to all federal, state and local government web resources and services.